Location: Montjean
(48.0167°N, 0.9667°W)
Time: 15:25:47
(UTC+02:00)

ISS - Visible Passes

Search period start: 17 July 2025 00:00
Search period end: 27 July 2025 00:00
Orbit: 415 x 418 km, 51.6° (Epoch: 17 July)

Date Brightness Start Highest point End Pass type
(mag) Time Alt. Az. Time Alt. Az. Time Alt. Az.
17 Jul -3.4 00:20:18 10° WNW 00:23:38 62° NNE 00:25:24 25° E visible
17 Jul -1.6 01:57:12 10° WNW 01:58:16 18° W 01:58:16 18° W visible
17 Jul -3.0 23:31:59 10° WNW 23:35:16 50° NNE 23:38:30 10° E visible
18 Jul -3.1 01:08:48 10° WNW 01:11:23 42° WSW 01:11:23 42° WSW visible
18 Jul -2.7 22:43:37 10° WNW 22:46:52 45° N 22:50:06 10° E visible
19 Jul -3.9 00:20:26 10° WNW 00:23:47 76° SSW 00:24:31 51° SE visible
19 Jul -3.7 23:32:06 10° WNW 23:35:28 78° NNE 23:37:41 19° ESE visible
20 Jul -1.7 01:09:13 10° W 01:10:34 18° WSW 01:10:34 18° WSW visible
20 Jul -3.3 22:43:45 10° WNW 22:47:05 60° NNE 22:50:24 10° E visible
21 Jul -3.0 00:20:39 10° WNW 00:23:44 35° SW 00:23:46 35° SSW visible
21 Jul -3.5 23:32:11 10° WNW 23:35:29 54° SSW 23:37:01 27° SE visible
22 Jul -3.8 22:43:47 10° WNW 22:47:09 79° SSW 22:50:17 11° ESE visible
23 Jul -1.6 00:21:18 10° W 00:23:10 16° SW 00:23:10 16° SW visible
23 Jul -2.2 23:32:28 10° W 23:35:16 25° SW 23:36:29 20° S visible
24 Jul -2.8 22:43:52 10° WNW 22:47:00 37° SW 22:49:50 12° SSE visible
25 Jul -1.2 23:33:57 10° WSW 23:34:50 11° SW 23:35:42 10° SSW visible
26 Jul -1.6 22:44:22 10° W 22:46:39 17° SW 22:48:54 10° S visible
